STARLINK-1718 (46674 NORAD) Tracking and Keplerian Element Data

This shows tracking and keplerian element data for the satellite.

Feedback or suggestion? Click here.




ElementValue
Catalog46674
NameSTARLINK-1718
Epoch Orbit179
Epoch Day17.91667824
Epoch Year2021
RAAN26.767
Inclination53.0538
Eccentricity0.0001327
Argument of Perigee74.6179
Mean Anonmoly42.1767
Mean Motion15.06399965
Decay Rate0.00039106
L11 46674U 20073E 21017.91667824 .00039106 00000-0 26297-2 0 9990
L22 46674 53.0538 26.7670 0001327 74.6179 42.1767 15.06399965 1795

Live tracking and technical data element details for STARLINK-1718 (NORAD 46674). STARLINK-1718 can be tracked NOW for your location showing map with azimuth and elevation plus other details from your city location.

Track the satellite on the map from your city or location and see movement details for azimuth, elevation, latitude, longitude, range, height, and movement on the map or in text.







IsCatalogInMostPopularTable: catalog: 46674, numindb: 26
Update: records affected: 1



GetName: 46674 STARLINK-1718

Hit Count: updated at: Tue, 19 Jan 2021 03:31:20 GMT